Погода в Чурсьях

Россия / Кировская область     60°01′10″N   48°36′52″E
темп.,
°C
ветер,
м/с
пор.,
м/с
влажн.,
%
обл.,
%
осадки,
мм/ч
давл.,
гПа
погр.,
м
15 апреля, чт
чт1500:00+10ююз41586100 0.0 1018415
03:00+8зюз399297 0.0 1018232
06:00+8ссз3894100 0.0 1019373
09:00+6ссв4788100 0.0 1022566
12:00+3ссв3895100 0.4 1024469
15:00+7ссв2668100 0.4 10251042
18:00+6ссв486428 0.0 1026408
21:00+1ссв27782 0.0 1028143
16 апреля, пт
пт1600:000ссв27845 0.0 1030143
03:00−1ссв24865 0.0 103176
06:000св24785 0.0 1032135
09:00+5всв22500 0.0 1032821
12:00+8с12413 0.0 10321193
15:00+8ссз23415 0.0 10311376
18:00+6ссз22602 0.0 103125
21:00+2с22745 0.0 103218
17 апреля, сб
сб1700:00+1ссз22763 0.0 103210
03:000сз22855 0.0 103226
06:00+1ссз24855 0.0 1033140
09:00+6ссз35635 0.0 1032941
12:00+8ссз34475 0.0 10311306
15:00+10ссз354235 0.0 10291426
18:00+7сз375889 0.0 1028301
21:00+4сз3117519 0.0 1028309
18 апреля, вс
вс1800:00+3сз311770 0.0 1028374
03:00+1сз311875 0.0 1028367
06:00+3с398264 0.0 1029979
09:00+3св56475 0.1 10311199
12:00+6св45330 0.0 10321534
15:00+6св45332 0.0 10331726
18:00+4всв36435 0.0 1034506
21:000всв27620 0.0 1035155
19 апреля, пн
пн1900:00−2в27670 0.0 1036161
03:00−2вюв22680 0.0 103743
06:00−1вюв24570 0.0 1038175
09:00+4вюв23365 0.0 10371217
12:00+6вюв22315 0.0 10361529
15:00+7в11300 0.0 10351625
18:00+5в11430 0.0 103510
21:00+1вюв11550 0.0 103510